M I D A S
Marine Information and Data Acquisition System
Tripno 1706 of the Zeeleeuw from 2009-06-05 06:34:45 to 2009-06-05 17:00:00
Back to CruiseResearch ActivitiesStationsMapUnderway DataData graphs

EquipmentUnitsComments
TimeDGPSUTC
LatitudeDGPSDM.mWGS84
LongitudeDGPSDM.mWGS84
SpeedMeteo Stationm/sRelative wind speed
DirectionMeteo StationdegRelative wind direction
TemperatureMeteo Stationdeg CelciusAir temperature
PressureMeteo StationPaAtmospheric pressure
HumidityMeteo Station%Relative humidity
Missing or incorrect values are displayed as -999
Metereological data collected by the RV Zeeleeuw from 2009-06-05 05:51:51 to 2009-06-05 16:52:22
                                                                                    Next 1000 lines
Time Latitude Longitude Speed Direction Temperature Pressure Humidity
2009-06-05 05:52:01 51°13.66 2°55.958 1.9 56 11.5 101260 64
2009-06-05 05:52:06 51°13.66 2°55.958 1.8 24 11.4 101270 64
2009-06-05 05:52:11 51°13.66 2°55.958 2.8 80 11.4 101270 64
2009-06-05 05:52:16 51°13.66 2°55.958 2.5 20 11.4 101260 64
2009-06-05 05:52:21 51°13.66 2°55.958 2.1 57 11.4 101260 64
2009-06-05 05:52:26 51°13.66 2°55.958 2.1 28 11.4 101260 64
2009-06-05 05:52:31 51°13.66 2°55.958 1.9 74 11.4 101260 64
2009-06-05 05:52:36 51°13.66 2°55.958 2.3 19 11.5 101270 65
2009-06-05 05:52:41 51°13.66 2°55.958 4.3 77 11.5 101270 65
2009-06-05 05:52:46 51°13.66 2°55.958 2.7 22 11.5 101260 65
2009-06-05 05:52:51 51°13.661 2°55.958 2.1 51 11.5 101260 65
2009-06-05 05:52:56 51°13.661 2°55.958 2.3 25 11.5 101270 65
2009-06-05 05:53:01 51°13.661 2°55.958 2.2 51 11.5 101270 65
2009-06-05 05:53:06 51°13.661 2°55.958 2 25 11.5 101270 65
2009-06-05 05:53:11 51°13.661 2°55.958 2.4 57 11.5 101270 65
2009-06-05 05:53:16 51°13.661 2°55.958 1.9 21 11.5 101260 65
2009-06-05 05:53:21 51°13.662 2°55.958 1.9 56 11.5 101260 65
2009-06-05 05:53:26 51°13.662 2°55.958 1.6 26 11.5 101260 65
2009-06-05 05:53:31 51°13.662 2°55.958 2 51 11.5 101260 65
2009-06-05 05:53:36 51°13.662 2°55.958 1.6 20 11.5 101260 65
2009-06-05 05:53:41 51°13.662 2°55.958 1.8 56 11.5 101260 65
2009-06-05 05:53:46 51°13.662 2°55.958 1.6 24 11.5 101260 65
2009-06-05 05:53:51 51°13.662 2°55.958 1.3 51 11.5 101260 65
2009-06-05 05:53:56 51°13.662 2°55.959 2 26 11.5 101260 65
2009-06-05 05:54:01 51°13.662 2°55.959 1.3 73 11.5 101260 65
2009-06-05 05:54:06 51°13.662 2°55.959 1.4 24 11.5 101260 66
2009-06-05 05:54:11 51°13.662 2°55.959 1.7 52 11.5 101260 66
2009-06-05 05:54:16 51°13.662 2°55.959 2.5 325 11.6 101260 66
2009-06-05 05:54:21 51°13.662 2°55.959 2.3 78 11.6 101260 66
2009-06-05 05:54:26 51°13.662 2°55.959 1.8 23 11.6 101260 66
2009-06-05 05:54:31 51°13.662 2°55.959 1.4 49 11.6 101260 66
2009-06-05 05:54:36 51°13.662 2°55.959 1.2 22 11.6 101260 66
2009-06-05 05:54:41 51°13.662 2°55.959 2.5 74 11.6 101260 66
2009-06-05 05:54:46 51°13.662 2°55.959 2.2 25 11.6 101260 66
2009-06-05 05:54:51 51°13.662 2°55.959 2.9 307 11.6 101260 66
2009-06-05 05:54:56 51°13.662 2°55.959 4 21 11.6 101260 66
2009-06-05 05:55:01 51°13.662 2°55.959 2.9 56 11.6 101260 66
2009-06-05 05:55:06 51°13.662 2°55.959 1.8 26 11.6 101260 65
2009-06-05 05:55:11 51°13.662 2°55.959 2.9 80 11.6 101260 65
2009-06-05 05:55:16 51°13.662 2°55.96 3.3 26 11.6 101260 65
2009-06-05 05:55:21 51°13.662 2°55.96 3.9 55 11.6 101260 65
2009-06-05 05:55:26 51°13.662 2°55.96 3.4 22 11.6 101260 65
2009-06-05 05:55:31 51°13.662 2°55.96 5 73 11.6 101260 65
2009-06-05 05:55:36 51°13.663 2°55.96 4 25 11.6 101260 65
2009-06-05 05:55:42 51°13.663 2°55.96 3.2 56 11.6 101260 65
2009-06-05 05:55:46 51°13.663 2°55.96 3.3 26 11.6 101260 65
2009-06-05 05:55:51 51°13.663 2°55.96 2.1 56 11.6 101260 65
2009-06-05 05:55:56 51°13.663 2°55.96 3.8 19 11.6 101260 65
2009-06-05 05:56:02 51°13.663 2°55.96 2.9 53 11.6 101260 65
2009-06-05 05:56:06 51°13.663 2°55.96 3.8 20 11.6 101260 65
2009-06-05 05:56:11 51°13.663 2°55.96 3 58 11.6 101260 65
2009-06-05 05:56:16 51°13.663 2°55.96 3.1 19 11.6 101260 65
2009-06-05 05:56:21 51°13.663 2°55.96 3.7 51 11.6 101260 65
2009-06-05 05:56:26 51°13.663 2°55.96 3.9 24 11.6 101260 65
2009-06-05 05:56:31 51°13.663 2°55.96 3.1 56 11.6 101260 65
2009-06-05 05:56:36 51°13.663 2°55.96 3.2 22 11.6 101260 65
2009-06-05 05:56:41 51°13.663 2°55.96 3.3 80 11.6 101260 65
2009-06-05 05:56:46 51°13.663 2°55.96 2.7 25 11.6 101260 65
2009-06-05 05:56:51 51°13.663 2°55.96 3.3 53 11.6 101260 65
2009-06-05 05:56:56 51°13.663 2°55.96 2.3 18 11.6 101260 65
2009-06-05 05:57:01 51°13.663 2°55.96 3.6 56 11.6 101260 65
2009-06-05 05:57:06 51°13.663 2°55.96 2.2 19 11.6 101260 66
2009-06-05 05:57:11 51°13.663 2°55.96 1.7 56 11.6 101260 66
2009-06-05 05:57:15 51°13.663 2°55.96 2.3 19 11.6 101260 65
2009-06-05 05:57:20 51°13.663 2°55.96 2.2 52 11.6 101260 65
2009-06-05 05:57:26 51°13.662 2°55.96 2.9 21 11.6 101260 65
2009-06-05 05:57:31 51°13.662 2°55.96 2.7 80 11.6 101260 65
2009-06-05 05:57:36 51°13.662 2°55.96 2.6 26 11.6 101260 66
2009-06-05 05:57:41 51°13.662 2°55.96 1.7 56 11.6 101260 66
2009-06-05 05:57:46 51°13.662 2°55.96 1.7 26 11.6 101260 66
2009-06-05 05:57:51 51°13.662 2°55.96 2 72 11.6 101260 66
2009-06-05 05:57:55 51°13.662 2°55.96 2.3 24 11.6 101260 65
2009-06-05 05:58:00 51°13.662 2°55.96 1.8 51 11.6 101260 65
2009-06-05 05:58:05 51°13.662 2°55.96 1.7 26 11.6 101260 65
2009-06-05 05:58:11 51°13.663 2°55.96 1.7 57 11.6 101260 65
2009-06-05 05:58:16 51°13.663 2°55.961 1.6 19 11.6 101260 65
2009-06-05 05:58:21 51°13.663 2°55.96 1.7 56 11.6 101260 65
2009-06-05 05:58:26 51°13.663 2°55.96 1.9 26 11.6 101260 65
2009-06-05 05:58:31 51°13.663 2°55.961 2.1 51 11.6 101260 65
2009-06-05 05:58:36 51°13.662 2°55.961 2 22 11.5 101260 65
2009-06-05 05:58:40 51°13.662 2°55.961 2.1 80 11.5 101260 65
2009-06-05 05:58:45 51°13.662 2°55.961 1.5 24 11.6 101260 65
2009-06-05 05:58:51 51°13.662 2°55.961 1.1 50 11.6 101260 65
2009-06-05 05:58:56 51°13.663 2°55.96 1.4 25 11.6 101260 65
2009-06-05 05:59:01 51°13.663 2°55.96 2.6 56 11.6 101260 65
2009-06-05 05:59:06 51°13.663 2°55.96 1.8 19 11.5 101260 65
2009-06-05 05:59:11 51°13.663 2°55.96 2.1 58 11.5 101260 65
2009-06-05 05:59:16 51°13.662 2°55.96 2.4 25 11.6 101260 65
2009-06-05 05:59:21 51°13.662 2°55.96 2.7 52 11.6 101260 65
2009-06-05 05:59:26 51°13.662 2°55.96 3.5 21 11.6 101260 65
2009-06-05 05:59:31 51°13.662 2°55.96 3.4 58 11.6 101260 65
2009-06-05 05:59:36 51°13.662 2°55.96 2.5 21 11.6 101260 65
2009-06-05 05:59:41 51°13.663 2°55.96 2.6 74 11.6 101260 65
2009-06-05 05:59:46 51°13.662 2°55.96 3.9 19 11.6 101260 65
2009-06-05 05:59:51 51°13.662 2°55.96 2.2 54 11.6 101260 65
2009-06-05 05:59:56 51°13.662 2°55.96 1.8 18 11.6 101260 65
2009-06-05 06:00:01 51°13.662 2°55.96 3.8 57 11.6 101260 65
2009-06-05 06:00:06 51°13.663 2°55.96 3.9 21 11.6 101260 66
2009-06-05 06:00:11 51°13.663 2°55.959 3.3 51 11.6 101260 66
2009-06-05 06:00:16 51°13.663 2°55.959 3.1 22 11.6 101260 66
2009-06-05 06:00:21 51°13.663 2°55.959 3.3 51 11.6 101260 66
2009-06-05 06:00:26 51°13.663 2°55.959 2.8 22 11.6 101260 66
2009-06-05 06:00:31 51°13.663 2°55.959 1.9 75 11.6 101260 66
2009-06-05 06:00:36 51°13.663 2°55.959 1.8 26 11.6 101260 66
2009-06-05 06:00:41 51°13.662 2°55.96 3.2 81 11.6 101260 66
2009-06-05 06:00:46 51°13.662 2°55.959 4 24 11.6 101260 65
2009-06-05 06:00:51 51°13.662 2°55.96 3.6 79 11.6 101260 65
2009-06-05 06:00:56 51°13.662 2°55.959 3.2 25 11.6 101260 66
2009-06-05 06:01:01 51°13.662 2°55.959 2.9 50 11.6 101260 66
2009-06-05 06:01:06 51°13.662 2°55.959 4.4 28 11.6 101260 65
2009-06-05 06:01:12 51°13.662 2°55.96 3.5 55 11.6 101260 65
2009-06-05 06:01:16 51°13.662 2°55.96 2.8 26 11.6 101260 65
2009-06-05 06:01:21 51°13.662 2°55.959 2.3 58 11.6 101260 65
2009-06-05 06:01:26 51°13.662 2°55.959 2.6 27 11.6 101260 66
2009-06-05 06:01:31 51°13.662 2°55.959 4.1 55 11.6 101260 66
2009-06-05 06:01:36 51°13.662 2°55.96 2.4 25 11.6 101260 65
2009-06-05 06:01:41 51°13.662 2°55.96 4.1 54 11.6 101260 65
2009-06-05 06:01:46 51°13.662 2°55.96 2.5 24 11.6 101260 66
2009-06-05 06:01:51 51°13.662 2°55.96 5 54 11.6 101260 66
2009-06-05 06:01:56 51°13.662 2°55.96 4.1 27 11.6 101260 65
2009-06-05 06:02:01 51°13.662 2°55.96 4.1 57 11.6 101260 65
2009-06-05 06:02:06 51°13.662 2°55.96 4.2 20 11.6 101260 65
2009-06-05 06:02:11 51°13.662 2°55.96 3.7 57 11.6 101260 65
2009-06-05 06:02:16 51°13.662 2°55.96 3.2 26 11.6 101260 65
2009-06-05 06:02:21 51°13.662 2°55.96 2.9 76 11.6 101260 65
2009-06-05 06:02:26 51°13.662 2°55.96 4.4 19 11.5 101260 65
2009-06-05 06:02:32 51°13.662 2°55.96 3.1 57 11.5 101260 65
2009-06-05 06:02:36 51°13.662 2°55.96 4.2 22 11.5 101260 64
2009-06-05 06:02:41 51°13.662 2°55.96 2.8 78 11.5 101260 64
2009-06-05 06:02:46 51°13.662 2°55.96 3.4 25 11.5 101250 64
2009-06-05 06:02:51 51°13.662 2°55.96 2.5 50 11.5 101250 64
2009-06-05 06:02:56 51°13.662 2°55.96 1.9 27 11.5 101260 64
2009-06-05 06:03:02 51°13.662 2°55.96 2.6 50 11.5 101260 64
2009-06-05 06:03:06 51°13.662 2°55.96 3.3 19 11.5 101250 65
2009-06-05 06:03:11 51°13.662 2°55.96 3.4 81 11.5 101250 65
2009-06-05 06:03:16 51°13.662 2°55.96 2.4 22 11.5 101250 65
2009-06-05 06:03:21 51°13.662 2°55.96 1.7 55 11.5 101250 65
2009-06-05 06:03:26 51°13.662 2°55.96 1.5 24 11.6 101250 65
2009-06-05 06:03:31 51°13.662 2°55.96 2.2 50 11.6 101250 65
2009-06-05 06:03:36 51°13.662 2°55.96 2.6 20 11.5 101250 65
2009-06-05 06:03:42 51°13.662 2°55.96 3.5 54 11.5 101250 65
2009-06-05 06:03:46 51°13.662 2°55.96 3.1 23 11.6 101250 65
2009-06-05 06:03:51 51°13.662 2°55.96 3.7 79 11.6 101250 65
2009-06-05 06:03:56 51°13.662 2°55.96 2.2 25 11.6 101250 65
2009-06-05 06:04:01 51°13.662 2°55.96 1.9 57 11.6 101250 65
2009-06-05 06:04:06 51°13.663 2°55.959 1.5 19 11.6 101250 66
2009-06-05 06:04:11 51°13.663 2°55.959 2.7 56 11.6 101250 66
2009-06-05 06:04:16 51°13.663 2°55.959 2.2 26 11.6 101250 66
2009-06-05 06:04:21 51°13.663 2°55.959 2.2 55 11.6 101250 66
2009-06-05 06:04:26 51°13.663 2°55.959 1.7 20 11.6 101250 65
2009-06-05 06:04:31 51°13.663 2°55.959 1.5 56 11.6 101250 65
2009-06-05 06:04:36 51°13.663 2°55.959 1.9 20 11.5 101260 65
2009-06-05 06:04:40 51°13.663 2°55.959 1.4 74 11.5 101260 65
2009-06-05 06:04:46 51°13.663 2°55.959 1.6 21 11.6 101250 65
2009-06-05 06:04:51 51°13.663 2°55.959 1.4 49 11.6 101250 65
2009-06-05 06:04:56 51°13.663 2°55.959 2 25 11.6 101250 65
2009-06-05 06:05:00 51°13.663 2°55.959 1.8 55 11.6 101250 65
2009-06-05 06:05:06 51°13.663 2°55.959 2.1 25 11.6 101250 65
2009-06-05 06:05:11 51°13.663 2°55.959 3.2 53 11.6 101250 65
2009-06-05 06:05:16 51°13.663 2°55.959 2.4 26 11.6 101250 65
2009-06-05 06:05:22 51°13.663 2°55.959 2 54 11.6 101250 65
2009-06-05 06:05:26 51°13.663 2°55.959 2.8 25 11.6 101250 66
2009-06-05 06:05:31 51°13.663 2°55.959 2.7 56 11.6 101250 66
2009-06-05 06:05:36 51°13.663 2°55.959 2.3 25 11.6 101250 65
2009-06-05 06:05:41 51°13.663 2°55.959 2.3 55 11.6 101250 65
2009-06-05 06:05:46 51°13.663 2°55.959 2.1 18 11.6 101250 65
2009-06-05 06:05:51 51°13.663 2°55.959 2.9 51 11.6 101250 65
2009-06-05 06:05:56 51°13.663 2°55.958 2.3 24 11.6 101250 65
2009-06-05 06:06:02 51°13.663 2°55.958 2 56 11.6 101250 65
2009-06-05 06:06:06 51°13.663 2°55.958 1.6 20 11.6 101250 65
2009-06-05 06:06:11 51°13.663 2°55.958 2.3 72 11.6 101250 65
2009-06-05 06:06:16 51°13.663 2°55.959 1.7 23 11.6 101250 65
2009-06-05 06:06:21 51°13.664 2°55.959 2.1 50 11.6 101250 65
2009-06-05 06:06:26 51°13.663 2°55.959 3.1 26 11.6 101250 65
2009-06-05 06:06:31 51°13.663 2°55.959 3.7 76 11.6 101250 65
2009-06-05 06:06:36 51°13.664 2°55.958 3.8 28 11.6 101260 66
2009-06-05 06:06:42 51°13.664 2°55.959 2.8 82 11.6 101260 66
2009-06-05 06:06:46 51°13.664 2°55.959 1.8 19 11.6 101250 65
2009-06-05 06:06:51 51°13.663 2°55.959 4.3 55 11.6 101250 65
2009-06-05 06:06:56 51°13.663 2°55.959 4.4 18 11.6 101250 65
2009-06-05 06:07:01 51°13.663 2°55.959 3.9 55 11.6 101250 65
2009-06-05 06:07:06 51°13.663 2°55.959 3.5 23 11.6 101250 65
2009-06-05 06:07:12 51°13.663 2°55.96 2.8 57 11.6 101250 65
2009-06-05 06:07:16 51°13.662 2°55.96 2.7 26 11.6 101250 65
2009-06-05 06:07:21 51°13.663 2°55.96 2.1 52 11.6 101250 65
2009-06-05 06:07:26 51°13.662 2°55.96 2.3 25 11.6 101250 65
2009-06-05 06:07:31 51°13.662 2°55.96 1.7 51 11.6 101250 65
2009-06-05 06:07:36 51°13.662 2°55.96 2.3 26 11.6 101260 65
2009-06-05 06:07:41 51°13.662 2°55.96 2.6 75 11.6 101260 65
2009-06-05 06:07:46 51°13.662 2°55.96 2.1 26 11.6 101250 65
2009-06-05 06:07:52 51°13.662 2°55.961 3.7 51 11.6 101250 65
2009-06-05 06:07:56 51°13.662 2°55.961 3 24 11.6 101250 66
2009-06-05 06:08:01 51°13.662 2°55.961 2.7 81 11.6 101250 66
2009-06-05 06:08:06 51°13.662 2°55.961 1.8 26 11.7 101250 66
2009-06-05 06:08:11 51°13.662 2°55.961 1.4 51 11.7 101250 66
2009-06-05 06:08:16 51°13.662 2°55.961 1.5 26 11.7 101260 66
2009-06-05 06:08:21 51°13.662 2°55.961 2.5 57 11.7 101260 66
2009-06-05 06:08:26 51°13.662 2°55.961 3.8 20 11.7 101250 66
2009-06-05 06:08:31 51°13.662 2°55.961 3.8 20 11.7 101250 66
2009-06-05 06:08:36 51°13.662 2°55.961 3.8 20 11.7 101250 66
2009-06-05 06:08:41 51°13.662 2°55.961 3.8 20 11.7 101250 66
2009-06-05 06:08:46 51°13.662 2°55.961 3.8 20 11.7 101250 66
2009-06-05 06:08:52 51°13.662 2°55.961 3.8 20 11.7 101250 66
2009-06-05 06:08:56 51°13.662 2°55.961 3.8 20 -999 -999 -999
2009-06-05 06:09:01 51°13.662 2°55.961 -999 -999 -999 -999 -999
2009-06-05 06:09:06 51°13.661 2°55.961 -999 31 -999 -999 -999
2009-06-05 06:09:11 51°13.662 2°55.961 3.1 55 -999 -999 -999
2009-06-05 06:09:16 51°13.662 2°55.961 3.3 28 -999 -999 -999
2009-06-05 06:09:21 51°13.662 2°55.961 2.1 52 -999 -999 -999
2009-06-05 06:09:26 51°13.662 2°55.961 2.2 26 11.6 -999 64
2009-06-05 06:09:31 51°13.662 2°55.961 3.5 49 11.6 -999 64
2009-06-05 06:09:36 51°13.662 2°55.961 3.1 25 11.7 -999 65
2009-06-05 06:09:41 51°13.662 2°55.96 3.6 57 11.7 -999 65
2009-06-05 06:09:46 51°13.662 2°55.961 3.3 23 11.7 101250 65
2009-06-05 06:09:51 51°13.662 2°55.961 2.9 50 11.7 101250 65
2009-06-05 06:09:56 51°13.662 2°55.96 2.3 18 11.7 101250 65
2009-06-05 06:10:01 51°13.662 2°55.96 1.3 51 11.7 101250 65
2009-06-05 06:10:06 51°13.662 2°55.96 1.5 26 11.7 101250 65
2009-06-05 06:10:11 51°13.662 2°55.96 1.5 57 11.7 101250 65
2009-06-05 06:10:16 51°13.661 2°55.96 1.5 24 11.7 101250 65
2009-06-05 06:10:21 51°13.662 2°55.96 1.5 56 11.7 101250 65
2009-06-05 06:10:26 51°13.662 2°55.96 1.7 21 11.7 101250 65
2009-06-05 06:10:31 51°13.662 2°55.96 2.9 52 11.7 101250 65
2009-06-05 06:10:36 51°13.662 2°55.96 3.2 26 11.7 101250 66
2009-06-05 06:10:41 51°13.662 2°55.959 2.9 55 11.7 101250 66
2009-06-05 06:10:46 51°13.662 2°55.959 2 27 11.7 101250 66
2009-06-05 06:10:51 51°13.662 2°55.959 2.2 50 11.7 101250 66
2009-06-05 06:10:56 51°13.662 2°55.96 3.7 22 11.7 101250 66
2009-06-05 06:11:02 51°13.662 2°55.959 2 54 11.7 101250 66
2009-06-05 06:11:06 51°13.662 2°55.959 1.8 20 11.7 101250 65
2009-06-05 06:11:11 51°13.662 2°55.959 2.7 57 11.7 101250 65
2009-06-05 06:11:16 51°13.662 2°55.959 2.5 28 11.7 101250 66
2009-06-05 06:11:21 51°13.662 2°55.959 1.8 57 11.7 101250 66
2009-06-05 06:11:26 51°13.662 2°55.959 2.2 25 11.7 101250 66
2009-06-05 06:11:31 51°13.662 2°55.959 3 50 11.7 101250 66
2009-06-05 06:11:36 51°13.662 2°55.959 3.6 25 11.7 101250 65
2009-06-05 06:11:41 51°13.663 2°55.959 2.7 52 11.7 101250 65
2009-06-05 06:11:46 51°13.662 2°55.96 2.4 28 11.7 101250 65
2009-06-05 06:11:51 51°13.662 2°55.96 1.8 52 11.7 101250 65
2009-06-05 06:11:56 51°13.663 2°55.96 1.6 28 11.7 101250 65
2009-06-05 06:12:01 51°13.663 2°55.96 1.8 57 11.7 101250 65
2009-06-05 06:12:05 51°13.663 2°55.96 1.9 22 11.7 101250 65
2009-06-05 06:12:10 51°13.663 2°55.96 2.3 56 11.7 101250 65
2009-06-05 06:12:16 51°13.663 2°55.96 2 24 11.7 101250 65
2009-06-05 06:12:20 51°13.663 2°55.959 1.6 53 11.7 101250 65
2009-06-05 06:12:25 51°13.663 2°55.959 1.9 23 11.8 101250 65
2009-06-05 06:12:29 51°13.663 2°55.959 2.5 58 11.8 101250 65
2009-06-05 06:12:34 51°13.663 2°55.959 2.3 19 11.8 101250 66
2009-06-05 06:12:39 51°13.663 2°55.959 2.3 52 11.8 101250 66
2009-06-05 06:12:44 51°13.663 2°55.959 2.1 26 11.8 101250 66
2009-06-05 06:12:49 51°13.663 2°55.959 1.7 57 11.8 101250 66
2009-06-05 06:12:54 51°13.663 2°55.959 1.4 25 11.8 101250 66
2009-06-05 06:12:58 51°13.663 2°55.959 1.5 54 11.8 101250 66
2009-06-05 06:13:03 51°13.663 2°55.959 1.2 26 11.8 101250 65
2009-06-05 06:13:08 51°13.663 2°55.959 1.8 53 11.8 101250 65
2009-06-05 06:13:13 51°13.663 2°55.959 2.9 27 11.8 101250 65
2009-06-05 06:13:18 51°13.663 2°55.959 2.9 50 11.8 101250 65
2009-06-05 06:13:23 51°13.663 2°55.959 2.8 28 11.8 101250 66
2009-06-05 06:13:28 51°13.664 2°55.959 3.3 52 11.8 101250 66
2009-06-05 06:13:32 51°13.663 2°55.959 4 25 11.8 101250 65
2009-06-05 06:13:37 51°13.663 2°55.959 2.8 55 11.8 101250 65
2009-06-05 06:13:42 51°13.663 2°55.959 4.2 28 11.8 101250 65
2009-06-05 06:13:47 51°13.663 2°55.959 3.1 51 11.8 101250 65
2009-06-05 06:13:52 51°13.664 2°55.959 3.2 27 11.8 101250 65
2009-06-05 06:13:57 51°13.664 2°55.959 2.5 51 11.8 101250 65
2009-06-05 06:14:02 51°13.664 2°55.959 3.8 27 11.8 101250 65
2009-06-05 06:14:08 51°13.664 2°55.959 3.2 51 11.8 101250 65
2009-06-05 06:14:12 51°13.664 2°55.959 3.7 20 11.8 101250 65
2009-06-05 06:14:17 51°13.664 2°55.959 2.3 51 11.8 101250 65
2009-06-05 06:14:22 51°13.664 2°55.959 2.7 18 11.8 101250 65
2009-06-05 06:14:26 51°13.664 2°55.959 2.8 54 11.8 101250 65
2009-06-05 06:14:32 51°13.664 2°55.958 3.2 26 11.8 101250 65
2009-06-05 06:14:37 51°13.664 2°55.959 3.4 57 11.8 101250 65
2009-06-05 06:14:42 51°13.664 2°55.958 3.2 19 11.8 101250 65
2009-06-05 06:14:46 51°13.664 2°55.959 2.6 56 11.8 101250 65
2009-06-05 06:14:52 51°13.664 2°55.959 4.2 26 11.8 101250 65
2009-06-05 06:14:57 51°13.664 2°55.959 4 52 11.8 101250 65
2009-06-05 06:15:02 51°13.664 2°55.958 3 26 11.8 101250 65
2009-06-05 06:15:07 51°13.664 2°55.958 3.3 50 11.8 101250 65
2009-06-05 06:15:12 51°13.663 2°55.958 3 20 11.8 101250 65
2009-06-05 06:15:17 51°13.664 2°55.958 3.4 52 11.8 101250 65
2009-06-05 06:15:22 51°13.664 2°55.958 2.1 26 11.8 101250 64
2009-06-05 06:15:27 51°13.664 2°55.958 3.5 54 11.8 101250 64
2009-06-05 06:15:32 51°13.663 2°55.958 3.3 24 11.8 101250 64
2009-06-05 06:15:37 51°13.663 2°55.958 3.4 55 11.8 101250 64
2009-06-05 06:15:42 51°13.664 2°55.958 3.4 28 11.8 101250 64
2009-06-05 06:15:47 51°13.663 2°55.958 3.4 56 11.8 101250 64
2009-06-05 06:15:52 51°13.663 2°55.958 3.2 22 11.8 101250 64
2009-06-05 06:15:58 51°13.663 2°55.959 2.4 52 11.8 101250 64
2009-06-05 06:16:02 51°13.663 2°55.959 2.5 21 11.8 101250 64
2009-06-05 06:16:07 51°13.663 2°55.958 2.7 49 11.8 101250 64
2009-06-05 06:16:12 51°13.663 2°55.959 1.6 25 11.7 101250 64
2009-06-05 06:16:18 51°13.664 2°55.959 1.3 55 11.7 101250 64
2009-06-05 06:16:22 51°13.664 2°55.959 1.3 24 11.7 101250 64
2009-06-05 06:16:26 51°13.664 2°55.959 1.4 54 11.7 101250 64
2009-06-05 06:16:32 51°13.664 2°55.959 2.3 29 11.8 101250 64
2009-06-05 06:16:38 51°13.663 2°55.959 2.6 58 11.8 101250 64
2009-06-05 06:16:42 51°13.664 2°55.959 1.9 21 11.8 101250 65
2009-06-05 06:16:46 51°13.663 2°55.959 2.1 55 11.8 101250 65
2009-06-05 06:16:52 51°13.663 2°55.959 1.6 23 11.8 101250 65
2009-06-05 06:16:57 51°13.663 2°55.959 2.1 51 11.8 101250 65
2009-06-05 06:17:02 51°13.663 2°55.959 1.6 28 11.8 101250 65
2009-06-05 06:17:07 51°13.663 2°55.959 1.9 57 11.8 101250 65
2009-06-05 06:17:12 51°13.663 2°55.959 3 24 11.9 101250 66
2009-06-05 06:17:18 51°13.663 2°55.959 2.8 56 11.9 101250 66
2009-06-05 06:17:22 51°13.663 2°55.959 2.7 26 11.9 101250 66
2009-06-05 06:17:27 51°13.663 2°55.959 2 51 11.9 101250 66
2009-06-05 06:17:32 51°13.663 2°55.959 2.1 19 11.9 101250 66
2009-06-05 06:17:37 51°13.663 2°55.959 3.5 50 11.9 101250 66
2009-06-05 06:17:42 51°13.663 2°55.959 2.8 24 11.9 101250 66
2009-06-05 06:17:48 51°13.663 2°55.959 1.8 55 11.9 101250 66
2009-06-05 06:17:52 51°13.663 2°55.959 2.1 24 11.9 101250 66
2009-06-05 06:17:57 51°13.663 2°55.959 1.9 49 11.9 101250 66
2009-06-05 06:18:02 51°13.663 2°55.959 2.2 20 12 101250 66
2009-06-05 06:18:06 51°13.663 2°55.959 2.1 58 12 101250 66
2009-06-05 06:18:12 51°13.663 2°55.959 1.8 20 12 101250 66
2009-06-05 06:18:17 51°13.663 2°55.959 2.4 51 12 101250 66
2009-06-05 06:18:22 51°13.663 2°55.959 2.9 20 12 101250 66
2009-06-05 06:18:26 51°13.663 2°55.959 2 55 12 101250 66
2009-06-05 06:18:32 51°13.663 2°55.959 2.6 25 12 101250 66
2009-06-05 06:18:38 51°13.663 2°55.959 2.3 49 12 101250 66
2009-06-05 06:18:42 51°13.663 2°55.959 3.3 27 12 101250 66
2009-06-05 06:18:46 51°13.663 2°55.959 1.9 55 12 101250 66
2009-06-05 06:18:52 51°13.663 2°55.959 2.8 24 12.1 101250 66
2009-06-05 06:18:57 51°13.663 2°55.959 3.8 51 12.1 101250 66
2009-06-05 06:19:02 51°13.663 2°55.959 3.9 28 12.1 101250 66
2009-06-05 06:19:08 51°13.663 2°55.959 2.6 58 12.1 101250 66
2009-06-05 06:19:12 51°13.663 2°55.959 2.6 23 12.1 101250 66
2009-06-05 06:19:17 51°13.663 2°55.959 4.5 58 12.1 101250 66
2009-06-05 06:19:22 51°13.663 2°55.959 3.3 25 12.1 101250 66
2009-06-05 06:19:27 51°13.663 2°55.959 2.4 52 12.1 101250 66
2009-06-05 06:19:32 51°13.662 2°55.959 2.5 20 12.1 101250 65
2009-06-05 06:19:38 51°13.662 2°55.96 3.3 54 12.1 101250 65
2009-06-05 06:19:43 51°13.662 2°55.96 2.8 26 12.1 101250 65
2009-06-05 06:19:47 51°13.663 2°55.959 3.2 50 12.1 101250 65
2009-06-05 06:19:53 51°13.662 2°55.959 2.4 22 12.1 101250 65
2009-06-05 06:19:58 51°13.662 2°55.96 2.4 57 12.1 101250 65
2009-06-05 06:20:03 51°13.662 2°55.96 3.7 27 12.1 101250 65
2009-06-05 06:20:07 51°13.662 2°55.96 2.5 58 12.1 101250 65
2009-06-05 06:20:13 51°13.662 2°55.96 2.2 22 12.1 101250 65
2009-06-05 06:20:18 51°13.662 2°55.96 3.4 56 12.1 101250 65
2009-06-05 06:20:23 51°13.663 2°55.96 3.2 25 12.1 101250 65
2009-06-05 06:20:27 51°13.663 2°55.96 3.5 55 12.1 101250 65
2009-06-05 06:20:33 51°13.663 2°55.96 3 27 12.1 101250 65
2009-06-05 06:20:38 51°13.663 2°55.96 1.8 49 12.1 101250 65
2009-06-05 06:20:42 51°13.662 2°55.96 2.2 22 12.1 101250 65
2009-06-05 06:20:48 51°13.662 2°55.96 1.5 51 12.1 101250 65
2009-06-05 06:20:53 51°13.663 2°55.96 2.2 22 12.1 101250 64
2009-06-05 06:20:58 51°13.662 2°55.96 2.3 54 12.1 101250 64
2009-06-05 06:21:03 51°13.662 2°55.96 3.5 26 12.1 101250 65
2009-06-05 06:21:08 51°13.663 2°55.961 2.5 50 12.1 101250 65
2009-06-05 06:21:13 51°13.662 2°55.961 3.7 26 12.1 101250 66
2009-06-05 06:21:18 51°13.662 2°55.961 3.8 55 12.1 101250 66
2009-06-05 06:21:23 51°13.663 2°55.961 4 21 12.1 101250 65
2009-06-05 06:21:27 51°13.663 2°55.961 4.3 55 12.1 101250 65
2009-06-05 06:21:33 51°13.663 2°55.961 4.5 23 12.1 101250 65
2009-06-05 06:21:38 51°13.663 2°55.961 4.2 55 12.1 101250 65
2009-06-05 06:21:43 51°13.663 2°55.961 3.7 25 12.1 101250 64
2009-06-05 06:21:48 51°13.662 2°55.961 2.6 51 12.1 101250 64
2009-06-05 06:21:52 51°13.662 2°55.961 3.2 23 12 101250 64
2009-06-05 06:21:58 51°13.662 2°55.961 2.9 53 12 101250 64
2009-06-05 06:22:03 51°13.662 2°55.961 2.6 26 12 101250 64
2009-06-05 06:22:08 51°13.662 2°55.961 3.3 57 12 101250 64
2009-06-05 06:22:12 51°13.662 2°55.961 2.2 26 12 101250 64
2009-06-05 06:22:18 51°13.662 2°55.961 2.4 57 12 101250 64
2009-06-05 06:22:23 51°13.663 2°55.961 2.2 25 12 101250 64
2009-06-05 06:22:27 51°13.663 2°55.961 2.6 51 12 101250 64
2009-06-05 06:22:33 51°13.662 2°55.962 3.3 22 12 101250 64
2009-06-05 06:22:38 51°13.662 2°55.962 2.3 57 12 101250 64
2009-06-05 06:22:43 51°13.663 2°55.961 2.6 21 12 101250 64
2009-06-05 06:22:47 51°13.662 2°55.961 2.3 57 12 101250 64
2009-06-05 06:22:53 51°13.662 2°55.961 3.2 24 12 101250 64
2009-06-05 06:22:58 51°13.662 2°55.961 3.2 54 12 101250 64
2009-06-05 06:23:03 51°13.662 2°55.961 3.1 24 12 101250 64
2009-06-05 06:23:08 51°13.662 2°55.961 2.1 55 12 101250 64
2009-06-05 06:23:13 51°13.662 2°55.961 2.7 25 12 101250 64
2009-06-05 06:23:18 51°13.662 2°55.96 2.9 54 12 101250 64
2009-06-05 06:23:23 51°13.662 2°55.96 2.2 24 11.9 101250 64
2009-06-05 06:23:27 51°13.662 2°55.96 2.3 51 11.9 101250 64
2009-06-05 06:23:33 51°13.662 2°55.96 3.8 19 11.9 101250 64
2009-06-05 06:23:38 51°13.662 2°55.96 4.4 55 11.9 101250 64
2009-06-05 06:23:42 51°13.662 2°55.96 4 19 11.9 101250 64
2009-06-05 06:23:47 51°13.662 2°55.96 3.3 55 11.9 101250 64
2009-06-05 06:23:52 51°13.662 2°55.96 3.1 25 11.9 101250 64
2009-06-05 06:23:58 51°13.662 2°55.96 3.2 53 11.9 101250 64
2009-06-05 06:24:03 51°13.662 2°55.959 2.6 21 11.9 101250 64
2009-06-05 06:24:07 51°13.662 2°55.959 3.4 54 11.9 101250 64
2009-06-05 06:24:12 51°13.662 2°55.959 2.7 18 11.9 101250 64
2009-06-05 06:24:18 51°13.662 2°55.959 3.2 58 11.9 101250 64
2009-06-05 06:24:23 51°13.662 2°55.959 2.5 23 11.8 101250 64
2009-06-05 06:24:27 51°13.662 2°55.959 2.7 56 11.8 101250 64
2009-06-05 06:24:32 51°13.662 2°55.959 2.3 22 11.8 101240 63
2009-06-05 06:24:38 51°13.662 2°55.96 2 55 11.8 101240 63
2009-06-05 06:24:43 51°13.662 2°55.96 2.1 21 11.8 101250 64
2009-06-05 06:24:47 51°13.662 2°55.96 2.5 55 11.8 101250 64
2009-06-05 06:24:53 51°13.662 2°55.96 3.2 22 11.8 101250 64
2009-06-05 06:24:58 51°13.662 2°55.96 3.9 52 11.8 101250 64
2009-06-05 06:25:03 51°13.662 2°55.96 3.3 24 11.8 101240 64
2009-06-05 06:25:07 51°13.662 2°55.96 3.4 52 11.8 101240 64
2009-06-05 06:25:13 51°13.661 2°55.96 3.6 25 11.8 101250 64
2009-06-05 06:25:18 51°13.661 2°55.96 3.6 54 11.8 101250 64
2009-06-05 06:25:23 51°13.662 2°55.96 3.6 19 11.7 101250 63
2009-06-05 06:25:27 51°13.662 2°55.96 3.7 55 11.7 101250 63
2009-06-05 06:25:33 51°13.662 2°55.96 3.1 26 11.7 101240 63
2009-06-05 06:25:38 51°13.661 2°55.96 2.8 51 11.7 101240 63
2009-06-05 06:25:42 51°13.661 2°55.96 3.2 20 11.7 101250 63
2009-06-05 06:25:47 51°13.661 2°55.96 3.7 56 11.7 101250 63
2009-06-05 06:25:53 51°13.661 2°55.96 3.6 28 11.7 101250 64
2009-06-05 06:25:58 51°13.661 2°55.96 4.1 56 11.7 101250 64
2009-06-05 06:26:03 51°13.661 2°55.96 4.7 23 11.7 101240 64
2009-06-05 06:26:07 51°13.661 2°55.96 3.8 52 11.7 101240 64
2009-06-05 06:26:13 51°13.661 2°55.96 4 23 11.7 101240 64
2009-06-05 06:26:18 51°13.661 2°55.96 3.5 55 11.7 101240 64
2009-06-05 06:26:23 51°13.661 2°55.96 3.5 263 11.7 101240 64
2009-06-05 06:26:27 51°13.661 2°55.96 3.8 52 11.7 101240 64
2009-06-05 06:26:33 51°13.661 2°55.96 3.8 22 11.7 101240 64
2009-06-05 06:26:38 51°13.661 2°55.96 2.8 50 11.7 101240 64
2009-06-05 06:26:43 51°13.661 2°55.959 2.1 24 11.7 101250 64
2009-06-05 06:26:48 51°13.661 2°55.959 2.9 310 11.7 101250 64
2009-06-05 06:26:52 51°13.661 2°55.959 3.5 26 11.7 101240 64
2009-06-05 06:26:58 51°13.661 2°55.959 4.3 50 11.7 101240 64
2009-06-05 06:27:03 51°13.661 2°55.959 3.8 25 11.7 101240 65
2009-06-05 06:27:08 51°13.661 2°55.958 3.1 55 11.7 101240 65
2009-06-05 06:27:12 51°13.662 2°55.957 3.6 20 11.7 101240 65
2009-06-05 06:27:18 51°13.662 2°55.955 3.8 56 11.7 101240 65
2009-06-05 06:27:22 51°13.663 2°55.954 4.7 26 11.7 101240 65
2009-06-05 06:27:28 51°13.664 2°55.951 3.9 50 11.7 101240 65
2009-06-05 06:27:32 51°13.664 2°55.948 4.5 22 11.7 101240 64
2009-06-05 06:27:38 51°13.666 2°55.944 5 57 11.7 101240 64
2009-06-05 06:27:44 51°13.667 2°55.939 3.6 21 11.7 101240 64
2009-06-05 06:27:50 51°13.668 2°55.935 5.7 52 11.7 101240 64
2009-06-05 06:27:55 51°13.67 2°55.93 5.5 22 11.7 101240 64
2009-06-05 06:28:01 51°13.671 2°55.925 5.1 51 11.7 101240 64
2009-06-05 06:28:06 51°13.673 2°55.919 6.2 21 11.7 101240 64
2009-06-05 06:28:11 51°13.674 2°55.913 6.3 56 11.7 101240 64
2009-06-05 06:28:16 51°13.675 2°55.907 4.9 18 11.6 101240 64
2009-06-05 06:28:22 51°13.677 2°55.899 6.7 55 11.6 101240 64
2009-06-05 06:28:26 51°13.678 2°55.894 6.6 25 11.6 101240 64
2009-06-05 06:28:31 51°13.68 2°55.887 5.9 56 11.6 101240 64
2009-06-05 06:28:36 51°13.681 2°55.88 6.6 20 11.6 101240 64
2009-06-05 06:28:41 51°13.683 2°55.872 7 55 11.6 101240 64
2009-06-05 06:28:46 51°13.684 2°55.864 6.7 22 11.6 101250 64
2009-06-05 06:28:51 51°13.686 2°55.856 7.3 56 11.6 101250 64
2009-06-05 06:28:56 51°13.688 2°55.849 6.1 23 11.6 101250 64
2009-06-05 06:29:01 51°13.69 2°55.842 6.6 49 11.6 101250 64
2009-06-05 06:29:06 51°13.691 2°55.835 5 20 11.6 101240 64
2009-06-05 06:29:11 51°13.692 2°55.829 5.2 54 11.6 101240 64
2009-06-05 06:29:16 51°13.694 2°55.823 6 20 11.6 101250 64
2009-06-05 06:29:21 51°13.696 2°55.817 5.9 55 11.6 101250 64
2009-06-05 06:29:26 51°13.698 2°55.811 6.3 23 11.5 101250 64
2009-06-05 06:29:31 51°13.7 2°55.805 5 57 11.5 101250 64
2009-06-05 06:29:35 51°13.701 2°55.8 5.2 19 11.5 101240 64
2009-06-05 06:29:40 51°13.703 2°55.794 4.8 50 11.5 101240 64
2009-06-05 06:29:45 51°13.706 2°55.789 5.5 24 11.5 101240 64
2009-06-05 06:29:51 51°13.708 2°55.782 5.5 51 11.5 101240 64
2009-06-05 06:29:56 51°13.71 2°55.776 4.9 24 11.5 101240 64
2009-06-05 06:30:01 51°13.713 2°55.77 6.4 56 11.5 101240 64
2009-06-05 06:30:06 51°13.715 2°55.765 5.2 20 11.5 101240 65
2009-06-05 06:30:11 51°13.716 2°55.76 5.2 56 11.5 101240 65
2009-06-05 06:30:16 51°13.718 2°55.756 4.3 24 11.5 101240 66
2009-06-05 06:30:22 51°13.719 2°55.753 4.2 57 11.5 101240 66
2009-06-05 06:30:26 51°13.72 2°55.752 4.3 18 11.5 101240 66
2009-06-05 06:30:31 51°13.721 2°55.749 4.1 57 11.5 101240 66
2009-06-05 06:30:35 51°13.722 2°55.747 2.6 27 11.5 101250 66
2009-06-05 06:30:41 51°13.725 2°55.742 5.3 56 11.5 101250 66
2009-06-05 06:30:46 51°13.727 2°55.738 5 20 11.5 101240 65
2009-06-05 06:30:50 51°13.729 2°55.735 5.7 50 11.5 101240 65
2009-06-05 06:30:55 51°13.732 2°55.731 5.2 27 11.5 101240 65
2009-06-05 06:31:02 51°13.736 2°55.725 5.5 57 11.5 101240 65
2009-06-05 06:31:06 51°13.739 2°55.721 4.6 20 11.5 101250 65
2009-06-05 06:31:11 51°13.743 2°55.716 4.6 49 11.5 101250 65
2009-06-05 06:31:16 51°13.748 2°55.711 4.4 21 11.5 101240 66
2009-06-05 06:31:21 51°13.753 2°55.707 3.9 50 11.5 101240 66
2009-06-05 06:31:26 51°13.757 2°55.703 3.7 19 11.5 101240 66
2009-06-05 06:31:31 51°13.761 2°55.699 3.6 51 11.5 101240 66
2009-06-05 06:31:36 51°13.766 2°55.695 5 21 11.6 101240 67
2009-06-05 06:31:41 51°13.77 2°55.692 5.3 57 11.6 101240 67
2009-06-05 06:31:46 51°13.775 2°55.688 5.4 22 11.7 101240 69
2009-06-05 06:31:51 51°13.78 2°55.684 5.2 57 11.7 101240 69
2009-06-05 06:31:56 51°13.785 2°55.68 4.3 24 11.8 101240 68
2009-06-05 06:32:01 51°13.79 2°55.677 4.4 53 11.8 101240 68
2009-06-05 06:32:06 51°13.795 2°55.673 4.3 24 11.7 101240 66
2009-06-05 06:32:11 51°13.8 2°55.669 6.2 58 11.7 101240 66
2009-06-05 06:32:16 51°13.805 2°55.664 4.2 27 11.7 101250 67
2009-06-05 06:32:21 51°13.81 2°55.66 4.1 55 11.7 101250 67
2009-06-05 06:32:26 51°13.815 2°55.656 4.3 18 11.9 101240 68
2009-06-05 06:32:31 51°13.821 2°55.652 4.8 57 11.9 101240 68
2009-06-05 06:32:36 51°13.825 2°55.648 4.3 21 12 101240 68
2009-06-05 06:32:41 51°13.83 2°55.645 4 57 12 101240 68
2009-06-05 06:32:46 51°13.835 2°55.641 4.6 25 12.1 101240 69
2009-06-05 06:32:51 51°13.84 2°55.638 3.9 57 12.1 101240 69
2009-06-05 06:32:56 51°13.845 2°55.635 5 19 12.2 101240 68
2009-06-05 06:33:01 51°13.85 2°55.633 6.5 57 12.2 101240 68
2009-06-05 06:33:06 51°13.855 2°55.631 7.5 26 12.4 101240 66
2009-06-05 06:33:11 51°13.86 2°55.629 6.5 51 12.4 101240 66
2009-06-05 06:33:16 51°13.865 2°55.628 6.8 23 12.5 101240 66
2009-06-05 06:33:22 51°13.871 2°55.627 5.8 52 12.5 101240 66
2009-06-05 06:33:26 51°13.875 2°55.626 6.6 25 12.5 101240 62
2009-06-05 06:33:31 51°13.88 2°55.626 6.3 56 12.5 101240 62
2009-06-05 06:33:36 51°13.884 2°55.626 5.7 24 12.5 101240 62
2009-06-05 06:33:42 51°13.889 2°55.626 6.2 53 12.5 101240 62
2009-06-05 06:33:46 51°13.892 2°55.626 5.6 21 12.5 101240 63
2009-06-05 06:33:51 51°13.896 2°55.627 5.8 49 12.5 101240 63
2009-06-05 06:33:56 51°13.9 2°55.628 5.8 25 12.4 101240 63
2009-06-05 06:34:01 51°13.904 2°55.629 5.5 50 12.4 101240 63
2009-06-05 06:34:06 51°13.908 2°55.629 5.5 28 12.4 101230 62
2009-06-05 06:34:11 51°13.911 2°55.63 6 54 12.4 101230 62
2009-06-05 06:34:16 51°13.914 2°55.632 5.7 45 12.3 101240 62
2009-06-05 06:34:21 51°13.917 2°55.633 5.8 43 12.3 101240 62
2009-06-05 06:34:26 51°13.92 2°55.634 6.3 42 12.2 101240 62
2009-06-05 06:34:31 51°13.923 2°55.635 6.6 43 12.2 101240 62
2009-06-05 06:34:35 51°13.925 2°55.636 5.7 40 12.2 101230 62
2009-06-05 06:34:40 51°13.927 2°55.637 5.8 39 12.2 101230 62
2009-06-05 06:34:45 51°13.929 2°55.638 6.4 39 12.1 101230 62
2009-06-05 06:34:50 51°13.93 2°55.638 5.3 37 12.1 101230 62
2009-06-05 06:34:55 51°13.932 2°55.639 5.6 41 12.1 101230 63
2009-06-05 06:34:59 51°13.932 2°55.639 4.8 35 12.1 101230 63
2009-06-05 06:35:04 51°13.933 2°55.639 4.5 35 12 101230 64
2009-06-05 06:35:09 51°13.933 2°55.639 4.4 32 12 101230 64
2009-06-05 06:35:14 51°13.933 2°55.638 4.3 29 12 101230 65
2009-06-05 06:35:19 51°13.933 2°55.638 4.6 26 12 101230 65
2009-06-05 06:35:23 51°13.933 2°55.637 4.2 26 12 101230 65
2009-06-05 06:35:28 51°13.933 2°55.636 4.3 23 12 101230 65
2009-06-05 06:35:33 51°13.933 2°55.635 4 22 12 101230 64
2009-06-05 06:35:38 51°13.933 2°55.634 3.9 28 12 101230 64
2009-06-05 06:35:43 51°13.933 2°55.635 3.7 36 11.9 101230 64
2009-06-05 06:35:48 51°13.934 2°55.635 4.1 33 11.9 101230 64
2009-06-05 06:35:53 51°13.934 2°55.637 4.3 35 11.9 101230 65
2009-06-05 06:35:58 51°13.935 2°55.638 4.5 26 11.9 101230 65
2009-06-05 06:36:03 51°13.935 2°55.64 4.1 22 11.9 101230 65
2009-06-05 06:36:07 51°13.935 2°55.641 4 23 11.9 101230 65
2009-06-05 06:36:12 51°13.936 2°55.641 3.1 19 11.8 101230 65
2009-06-05 06:36:17 51°13.936 2°55.642 3.6 15 11.8 101230 65
2009-06-05 06:36:22 51°13.936 2°55.641 3.7 18 11.8 101230 64
2009-06-05 06:36:27 51°13.936 2°55.641 4.1 17 11.8 101230 64
2009-06-05 06:36:32 51°13.937 2°55.639 3.7 10 11.8 101230 65
2009-06-05 06:36:38 51°13.937 2°55.636 3.5 7 11.8 101230 65
2009-06-05 06:36:42 51°13.937 2°55.634 4.3 358 11.8 101230 65
2009-06-05 06:36:47 51°13.937 2°55.631 4.1 356 11.8 101230 65
2009-06-05 06:36:52 51°13.938 2°55.628 3.9 355 11.8 101230 66
2009-06-05 06:36:57 51°13.939 2°55.624 4.9 347 11.8 101230 66
2009-06-05 06:37:02 51°13.94 2°55.621 4.6 348 11.8 101230 66
2009-06-05 06:37:07 51°13.942 2°55.617 5.7 349 11.8 101230 66
2009-06-05 06:37:12 51°13.943 2°55.613 5.5 346 11.8 101230 65
2009-06-05 06:37:18 51°13.946 2°55.608 6.3 344 11.8 101230 65
2009-06-05 06:37:22 51°13.948 2°55.605 5.6 341 11.8 101230 66
2009-06-05 06:37:27 51°13.95 2°55.6 5.1 341 11.8 101230 66
2009-06-05 06:37:33 51°13.954 2°55.596 5.9 340 11.8 101230 66
2009-06-05 06:37:38 51°13.957 2°55.591 6.2 339 11.8 101230 66
2009-06-05 06:37:43 51°13.961 2°55.586 5.5 340 11.7 101230 65
2009-06-05 06:37:47 51°13.964 2°55.581 6.7 337 11.7 101230 65
2009-06-05 06:37:52 51°13.969 2°55.575 5.5 340 11.7 101230 65
2009-06-05 06:37:58 51°13.976 2°55.567 7 336 11.7 101230 65
2009-06-05 06:38:03 51°13.982 2°55.56 6.4 338 11.6 101220 65
2009-06-05 06:38:07 51°13.987 2°55.554 6.8 336 11.6 101220 65
2009-06-05 06:38:12 51°13.994 2°55.545 7 337 11.6 101230 65
2009-06-05 06:38:17 51°14.001 2°55.538 7.3 337 11.6 101230 65
2009-06-05 06:38:23 51°14.01 2°55.528 6.5 339 11.6 101230 65
2009-06-05 06:38:27 51°14.016 2°55.521 8.3 338 11.6 101230 65
2009-06-05 06:38:32 51°14.024 2°55.513 8.6 332 11.6 101230 65
2009-06-05 06:38:38 51°14.034 2°55.503 8.3 333 11.6 101230 65
2009-06-05 06:38:42 51°14.041 2°55.496 9.3 333 11.6 101230 65
2009-06-05 06:38:47 51°14.049 2°55.487 9.3 332 11.6 101230 65
2009-06-05 06:38:52 51°14.058 2°55.479 9.4 332 11.6 101230 66
2009-06-05 06:38:57 51°14.067 2°55.47 8 331 11.6 101230 66
2009-06-05 06:39:02 51°14.076 2°55.461 9 331 11.6 101230 66
2009-06-05 06:39:07 51°14.084 2°55.452 9.2 332 11.6 101230 66
2009-06-05 06:39:12 51°14.093 2°55.444 9.1 332 11.6 101220 66
2009-06-05 06:39:18 51°14.104 2°55.433 8.3 333 11.6 101220 66
2009-06-05 06:39:22 51°14.112 2°55.427 7.3 333 11.5 101230 66
2009-06-05 06:39:27 51°14.121 2°55.418 7.5 333 11.5 101230 66
2009-06-05 06:39:32 51°14.131 2°55.409 8.7 334 11.5 101230 66
2009-06-05 06:39:38 51°14.142 2°55.397 8 337 11.5 101230 66
2009-06-05 06:39:42 51°14.15 2°55.39 8.7 336 11.5 101230 65
2009-06-05 06:39:47 51°14.159 2°55.381 8.3 332 11.5 101230 65
2009-06-05 06:39:53 51°14.17 2°55.369 10.1 335 11.5 101230 66
2009-06-05 06:39:58 51°14.18 2°55.359 8.4 335 11.5 101230 66
2009-06-05 06:40:03 51°14.19 2°55.349 9.5 334 11.5 101230 66
2009-06-05 06:40:07 51°14.197 2°55.34 9.3 334 11.5 101230 66
2009-06-05 06:40:12 51°14.206 2°55.33 8.1 337 11.5 101220 68
2009-06-05 06:40:18 51°14.217 2°55.317 8.7 336 11.5 101220 68
2009-06-05 06:40:23 51°14.226 2°55.306 9.4 335 11.5 101230 67
2009-06-05 06:40:27 51°14.234 2°55.296 8.9 337 11.5 101230 67
2009-06-05 06:40:32 51°14.242 2°55.284 8.7 337 11.5 101230 67
2009-06-05 06:40:37 51°14.251 2°55.271 7.4 338 11.5 101230 67
2009-06-05 06:40:43 51°14.261 2°55.254 7.1 338 11.5 101230 67
2009-06-05 06:40:47 51°14.267 2°55.243 9 338 11.5 101230 67
2009-06-05 06:40:52 51°14.274 2°55.229 8.6 339 11.5 101230 67
2009-06-05 06:40:57 51°14.282 2°55.214 7.9 339 11.5 101230 67
2009-06-05 06:41:03 51°14.292 2°55.196 7.8 337 11.5 101230 66
2009-06-05 06:41:07 51°14.298 2°55.184 9.2 339 11.5 101230 66
2009-06-05 06:41:12 51°14.306 2°55.169 8.8 339 11.5 101230 67
2009-06-05 06:41:17 51°14.313 2°55.153 7.3 336 11.5 101230 67
2009-06-05 06:41:22 51°14.321 2°55.137 7.1 340 11.5 101230 67
2009-06-05 06:41:27 51°14.328 2°55.121 8 338 11.5 101230 67
2009-06-05 06:41:32 51°14.336 2°55.105 8.7 338 11.5 101230 67
2009-06-05 06:41:38 51°14.344 2°55.085 8.7 338 11.5 101230 67
2009-06-05 06:41:42 51°14.351 2°55.072 9.2 336 11.5 101230 67
2009-06-05 06:41:47 51°14.358 2°55.056 10 337 11.5 101230 67
2009-06-05 06:41:52 51°14.365 2°55.039 8.9 337 11.5 101220 67
2009-06-05 06:41:57 51°14.373 2°55.021 9.9 337 11.5 101220 67
2009-06-05 06:42:03 51°14.382 2°55.001 10.7 339 11.5 101220 68
2009-06-05 06:42:07 51°14.388 2°54.986 8.7 338 11.5 101220 68
2009-06-05 06:42:11 51°14.393 2°54.971 9.2 339 11.5 101220 67
2009-06-05 06:42:17 51°14.401 2°54.948 10.1 339 11.5 101220 67
2009-06-05 06:42:22 51°14.408 2°54.928 10.5 340 11.4 101220 67
2009-06-05 06:42:27 51°14.415 2°54.908 8.7 342 11.4 101220 67
2009-06-05 06:42:32 51°14.421 2°54.887 9.9 338 11.4 101220 66
2009-06-05 06:42:37 51°14.427 2°54.866 9.8 340 11.4 101220 66
2009-06-05 06:42:42 51°14.435 2°54.845 8.3 341 11.4 101220 67
2009-06-05 06:42:47 51°14.441 2°54.823 10.4 341 11.4 101220 67
2009-06-05 06:42:52 51°14.447 2°54.8 9.8 340 11.4 101220 67
2009-06-05 06:42:57 51°14.453 2°54.777 9.3 340 11.4 101220 67
2009-06-05 06:43:02 51°14.46 2°54.754 10.6 341 11.4 101220 67
2009-06-05 06:43:07 51°14.466 2°54.731 9.5 340 11.4 101220 67
2009-06-05 06:43:12 51°14.472 2°54.707 9.4 341 11.4 101230 66
2009-06-05 06:43:17 51°14.479 2°54.683 9.3 340 11.4 101230 66
2009-06-05 06:43:22 51°14.485 2°54.659 9.8 341 11.4 101230 67
2009-06-05 06:43:27 51°14.492 2°54.636 8.5 341 11.4 101230 67
2009-06-05 06:43:32 51°14.498 2°54.611 10.3 339 11.4 101220 68
2009-06-05 06:43:37 51°14.504 2°54.587 11 339 11.4 101220 68
2009-06-05 06:43:42 51°14.51 2°54.563 9.1 339 11.4 101220 67
2009-06-05 06:43:47 51°14.517 2°54.538 10.1 340 11.4 101220 67
2009-06-05 06:43:52 51°14.523 2°54.514 10.8 339 11.4 101230 67
2009-06-05 06:43:57 51°14.529 2°54.489 10 335 11.4 101230 67
2009-06-05 06:44:02 51°14.535 2°54.465 9.7 334 11.4 101220 67
2009-06-05 06:44:07 51°14.542 2°54.441 12.1 336 11.4 101220 67
2009-06-05 06:44:12 51°14.548 2°54.416 11.4 337 11.4 101220 67
2009-06-05 06:44:17 51°14.554 2°54.391 9.4 336 11.4 101220 67
2009-06-05 06:44:22 51°14.561 2°54.367 10.9 339 11.4 101220 68
2009-06-05 06:44:27 51°14.568 2°54.343 8.6 337 11.4 101220 68
2009-06-05 06:44:32 51°14.574 2°54.319 9 337 11.4 101230 68
2009-06-05 06:44:37 51°14.581 2°54.295 9.9 282 11.4 101230 68
2009-06-05 06:44:42 51°14.588 2°54.272 11.5 339 11.4 101230 68
2009-06-05 06:44:47 51°14.595 2°54.248 8.7 338 11.4 101230 68
2009-06-05 06:44:52 51°14.601 2°54.224 8.5 338 11.5 101230 68
2009-06-05 06:44:57 51°14.608 2°54.2 8.7 340 11.5 101230 68
2009-06-05 06:45:02 51°14.615 2°54.177 8.9 338 11.4 101230 67
2009-06-05 06:45:07 51°14.621 2°54.153 8.4 338 11.4 101230 67
2009-06-05 06:45:12 51°14.627 2°54.128 10.1 337 11.4 101230 67
2009-06-05 06:45:17 51°14.633 2°54.104 8.8 338 11.4 101230 67
2009-06-05 06:45:22 51°14.639 2°54.08 8.7 341 11.4 101230 67
2009-06-05 06:45:27 51°14.645 2°54.055 9.2 341 11.4 101230 67
2009-06-05 06:45:32 51°14.65 2°54.031 8.8 339 11.4 101230 67
2009-06-05 06:45:37 51°14.657 2°54.007 9.4 281 11.4 101230 67
2009-06-05 06:45:42 51°14.663 2°53.983 11.2 341 11.4 101220 67
2009-06-05 06:45:47 51°14.668 2°53.959 9.3 341 11.4 101220 67
2009-06-05 06:45:52 51°14.674 2°53.934 11.1 342 11.4 101230 67
2009-06-05 06:45:57 51°14.68 2°53.91 11.9 343 11.4 101230 67
2009-06-05 06:46:02 51°14.686 2°53.885 10.2 340 11.4 101230 67
2009-06-05 06:46:07 51°14.691 2°53.861 10.8 341 11.4 101230 67
2009-06-05 06:46:12 51°14.696 2°53.836 10.2 341 11.4 101230 67
2009-06-05 06:46:17 51°14.701 2°53.81 10.7 343 11.4 101230 67
2009-06-05 06:46:22 51°14.707 2°53.786 11.7 342 11.4 101230 67
2009-06-05 06:46:27 51°14.712 2°53.761 9.8 343 11.4 101230 67
2009-06-05 06:46:32 51°14.717 2°53.736 11.1 342 11.4 101230 68
2009-06-05 06:46:37 51°14.722 2°53.711 10.8 284 11.4 101230 68
2009-06-05 06:46:42 51°14.727 2°53.685 9.9 340 11.4 101230 68
2009-06-05 06:46:47 51°14.733 2°53.661 8.9 341 11.4 101230 68
2009-06-05 06:46:52 51°14.738 2°53.636 10.4 342 11.4 101220 67
2009-06-05 06:46:57 51°14.743 2°53.611 9.4 343 11.4 101220 67
2009-06-05 06:47:02 51°14.748 2°53.586 9.4 343 11.4 101230 68
2009-06-05 06:47:07 51°14.753 2°53.561 11.2 342 11.4 101230 68
2009-06-05 06:47:12 51°14.758 2°53.535 9.9 343 11.4 101210 67
2009-06-05 06:47:17 51°14.763 2°53.511 12.5 344 11.4 101210 67
2009-06-05 06:47:22 51°14.768 2°53.485 10.2 342 11.3 101230 67
2009-06-05 06:47:27 51°14.774 2°53.46 10.5 342 11.3 101230 67
2009-06-05 06:47:32 51°14.778 2°53.435 12 344 11.4 101230 68
2009-06-05 06:47:37 51°14.783 2°53.41 9.8 343 11.4 101230 68
2009-06-05 06:47:42 51°14.788 2°53.385 11.3 343 11.4 101220 69
2009-06-05 06:47:47 51°14.793 2°53.359 10.4 342 11.4 101220 69
2009-06-05 06:47:52 51°14.798 2°53.334 8.8 341 11.4 101220 68
2009-06-05 06:47:57 51°14.803 2°53.308 10.9 345 11.4 101220 68
2009-06-05 06:48:02 51°14.808 2°53.283 9.6 343 11.3 101230 67
2009-06-05 06:48:07 51°14.813 2°53.258 10.5 344 11.3 101230 67
2009-06-05 06:48:12 51°14.819 2°53.233 10.8 346 11.3 101230 68
2009-06-05 06:48:17 51°14.823 2°53.208 9.6 344 11.3 101230 68
2009-06-05 06:48:22 51°14.829 2°53.183 11.1 343 11.3 101230 69
2009-06-05 06:48:27 51°14.834 2°53.157 11.6 339 11.3 101230 69
2009-06-05 06:48:32 51°14.84 2°53.132 9.7 339 11.4 101230 70
2009-06-05 06:48:37 51°14.845 2°53.107 11.5 283 11.4 101230 70
2009-06-05 06:48:42 51°14.85 2°53.082 10 341 11.4 101220 71
2009-06-05 06:48:47 51°14.856 2°53.057 12.5 341 11.4 101220 71
2009-06-05 06:48:52 51°14.861 2°53.032 10.4 341 11.5 101220 71
2009-06-05 06:48:57 51°14.866 2°53.006 12.6 344 11.5 101220 71
2009-06-05 06:49:02 51°14.871 2°52.981 11.9 343 11.4 101230 70
2009-06-05 06:49:07 51°14.877 2°52.956 11.9 341 11.4 101230 70
2009-06-05 06:49:12 51°14.882 2°52.932 10.1 345 11.4 101240 70
2009-06-05 06:49:17 51°14.887 2°52.906 11.8 345 11.4 101240 70
2009-06-05 06:49:22 51°14.893 2°52.882 10.4 345 11.4 101230 70
2009-06-05 06:49:27 51°14.898 2°52.857 10.8 348 11.4 101230 70
2009-06-05 06:49:32 51°14.904 2°52.832 10.7 344 11.5 101230 71
2009-06-05 06:49:37 51°14.908 2°52.807 10.3 343 11.5 101230 71
2009-06-05 06:49:42 51°14.914 2°52.782 10.9 342 11.5 101220 71
2009-06-05 06:49:47 51°14.919 2°52.757 12.5 340 11.5 101220 71
2009-06-05 06:49:52 51°14.925 2°52.732 12.4 340 11.5 101230 71
2009-06-05 06:49:57 51°14.931 2°52.708 12 339 11.5 101230 71
2009-06-05 06:50:02 51°14.936 2°52.683 10.7 339 11.4 101230 71
2009-06-05 06:50:07 51°14.942 2°52.658 12.4 340 11.4 101230 71
2009-06-05 06:50:12 51°14.948 2°52.634 12.4 340 11.4 101230 71
2009-06-05 06:50:17 51°14.954 2°52.609 11.5 340 11.4 101230 71
2009-06-05 06:50:22 51°14.96 2°52.585 10.7 341 11.4 101240 70
2009-06-05 06:50:27 51°14.966 2°52.561 11.1 342 11.4 101240 70
2009-06-05 06:50:32 51°14.972 2°52.537 9.7 340 11.3 101220 70
2009-06-05 06:50:37 51°14.978 2°52.513 10.4 284 11.3 101220 70
2009-06-05 06:50:42 51°14.985 2°52.489 12.5 345 11.3 101230 70
2009-06-05 06:50:47 51°14.991 2°52.465 12.5 342 11.3 101230 70
2009-06-05 06:50:52 51°14.998 2°52.442 10.8 347 11.3 101230 70
2009-06-05 06:50:57 51°15.005 2°52.419 13.1 345 11.3 101230 70
2009-06-05 06:51:02 51°15.012 2°52.396 13.8 346 11.3 101240 70
2009-06-05 06:51:07 51°15.02 2°52.373 11.3 345 11.3 101240 70
2009-06-05 06:51:12 51°15.027 2°52.35 11 346 11.3 101230 71
2009-06-05 06:51:17 51°15.034 2°52.326 13.1 346 11.3 101230 71
2009-06-05 06:51:22 51°15.041 2°52.303 11.3 347 11.3 101220 72
2009-06-05 06:51:27 51°15.049 2°52.28 12.3 346 11.3 101220 72
2009-06-05 06:51:32 51°15.056 2°52.256 12.9 347 11.2 101220 70
2009-06-05 06:51:37 51°15.064 2°52.233 12.3 346 11.2 101220 70
2009-06-05 06:51:42 51°15.071 2°52.209 10.1 348 11.2 101230 70
2009-06-05 06:51:47 51°15.078 2°52.185 11.4 346 11.2 101230 70
2009-06-05 06:51:52 51°15.086 2°52.162 12 345 11.1 101220 69
2009-06-05 06:51:57 51°15.093 2°52.138 9.9 344 11.1 101220 69
2009-06-05 06:52:02 51°15.1 2°52.114 11.7 342 11.1 101230 69
2009-06-05 06:52:07 51°15.108 2°52.091 12.4 345 11.1 101230 69
2009-06-05 06:52:12 51°15.115 2°52.068 9.8 343 11.1 101230 70
2009-06-05 06:52:17 51°15.123 2°52.045 9.5 346 11.1 101230 70
2009-06-05 06:52:22 51°15.13 2°52.022 11 344 11.1 101230 70
2009-06-05 06:52:27 51°15.137 2°51.998 10.8 344 11.1 101230 70
2009-06-05 06:52:32 51°15.145 2°51.975 9 345 11.1 101240 70
2009-06-05 06:52:37 51°15.152 2°51.951 11.1 343 11.1 101240 70
2009-06-05 06:52:42 51°15.16 2°51.927 10.8 342 11.1 101230 70
2009-06-05 06:52:47 51°15.167 2°51.904 10.8 342 11.1 101230 70
2009-06-05 06:52:52 51°15.174 2°51.88 10.6 337 11.1 101240 70
2009-06-05 06:52:57 51°15.181 2°51.856 10.3 339 11.1 101240 70
2009-06-05 06:53:02 51°15.188 2°51.832 12.1 338 11 101230 71
2009-06-05 06:53:07 51°15.195 2°51.808 12 343 11 101230 71
2009-06-05 06:53:12 51°15.202 2°51.785 12 343 11.1 101240 72
2009-06-05 06:53:17 51°15.21 2°51.761 11 340 11.1 101240 72
2009-06-05 06:53:22 51°15.217 2°51.737 11.6 341 11.1 101230 72
2009-06-05 06:53:27 51°15.225 2°51.714 10.6 342 11.1 101230 72
2009-06-05 06:53:32 51°15.231 2°51.69 13.1 340 11 101230 71
2009-06-05 06:53:37 51°15.239 2°51.666 10.9 340 11 101230 71
2009-06-05 06:53:42 51°15.245 2°51.642 11.7 339 11 101220 72
2009-06-05 06:53:47 51°15.25 2°51.617 10.7 342 11 101220 72
2009-06-05 06:53:52 51°15.255 2°51.592 12.6 341 11 101230 73
2009-06-05 06:53:57 51°15.26 2°51.566 10.8 342 11 101230 73
2009-06-05 06:54:02 51°15.265 2°51.541 12.2 343 10.9 101220 72
2009-06-05 06:54:07 51°15.27 2°51.515 9.8 343 10.9 101220 72
2009-06-05 06:54:12 51°15.275 2°51.489 11.5 342 10.9 101230 72
2009-06-05 06:54:18 51°15.28 2°51.457 11.1 345 10.9 101230 72
2009-06-05 06:54:22 51°15.283 2°51.436 8.6 342 10.9 101220 73
2009-06-05 06:54:27 51°15.287 2°51.409 11.1 343 10.9 101220 73
2009-06-05 06:54:32 51°15.29 2°51.382 10.6 345 10.9 101220 72
2009-06-05 06:54:37 51°15.294 2°51.356 9.1 344 10.9 101220 72
2009-06-05 06:54:42 51°15.297 2°51.329 9.4 343 10.8 101240 73
2009-06-05 06:54:47 51°15.301 2°51.302 9.6 338 10.8 101240 73
2009-06-05 06:54:52 51°15.306 2°51.276 11.3 339 10.8 101230 73
2009-06-05 06:54:57 51°15.309 2°51.249 11.5 340 10.8 101230 73
2009-06-05 06:55:02 51°15.313 2°51.222 11.8 344 10.8 101230 73
2009-06-05 06:55:07 51°15.317 2°51.195 9.7 344 10.8 101230 73
2009-06-05 06:55:12 51°15.32 2°51.168 11.1 346 10.8 101230 75
2009-06-05 06:55:17 51°15.324 2°51.142 11.2 344 10.8 101230 75
2009-06-05 06:55:22 51°15.327 2°51.116 11.4 344 10.8 101230 75
2009-06-05 06:55:27 51°15.331 2°51.089 12.9 344 10.8 101230 75
2009-06-05 06:55:32 51°15.334 2°51.063 11.9 345 10.8 101210 74
2009-06-05 06:55:37 51°15.338 2°51.037 9.7 347 10.8 101210 74
2009-06-05 06:55:42 51°15.342 2°51.01 10.5 346 10.7 101220 74
2009-06-05 06:55:47 51°15.345 2°50.984 9.5 347 10.7 101220 74
2009-06-05 06:55:52 51°15.348 2°50.958 9.3 348 10.7 101220 75
2009-06-05 06:55:57 51°15.353 2°50.932 9.3 346 10.7 101220 75
2009-06-05 06:56:02 51°15.356 2°50.906 10.1 347 10.8 101220 78
2009-06-05 06:56:07 51°15.36 2°50.88 9.1 345 10.8 101220 78
2009-06-05 06:56:12 51°15.364 2°50.854 9.1 345 10.7 101220 75
2009-06-05 06:56:17 51°15.368 2°50.828 11 346 10.7 101220 75
2009-06-05 06:56:22 51°15.372 2°50.802 11.3 346 10.7 101220 75
2009-06-05 06:56:27 51°15.375 2°50.777 11.8 347 10.7 101220 75
2009-06-05 06:56:32 51°15.379 2°50.751 12.3 348 10.7 101220 75
2009-06-05 06:56:37 51°15.382 2°50.725 11.1 348 10.7 101220 75
2009-06-05 06:56:42 51°15.386 2°50.699 11.2 349 10.7 101220 76
2009-06-05 06:56:47 51°15.39 2°50.673 11 349 10.7 101220 76
2009-06-05 06:56:52 51°15.393 2°50.647 10.7 345 10.7 101220 75
2009-06-05 06:56:57 51°15.397 2°50.622 8.7 346 10.7 101220 75
2009-06-05 06:57:02 51°15.401 2°50.595 8.9 344 10.6 101210 74
2009-06-05 06:57:07 51°15.405 2°50.57 7.6 343 10.6 101210 74
2009-06-05 06:57:12 51°15.409 2°50.544 9.9 346 10.6 101220 75
2009-06-05 06:57:17 51°15.413 2°50.518 8.7 346 10.6 101220 75
2009-06-05 06:57:22 51°15.417 2°50.492 9.1 348 10.7 101220 78
2009-06-05 06:57:27 51°15.421 2°50.466 9 348 10.7 101220 78
2009-06-05 06:57:32 51°15.424 2°50.44 10.2 351 10.7 101210 78
2009-06-05 06:57:37 51°15.429 2°50.414 9.5 350 10.7 101210 78
2009-06-05 06:57:42 51°15.432 2°50.388 12.5 350 10.7 101220 80
2009-06-05 06:57:47 51°15.436 2°50.362 10.3 349 10.7 101220 80
2009-06-05 06:57:52 51°15.44 2°50.336 11.3 349 10.7 101220 81
2009-06-05 06:57:57 51°15.444 2°50.31 10.9 347 10.7 101220 81
2009-06-05 06:58:02 51°15.447 2°50.283 9.7 349 10.7 101200 81
2009-06-05 06:58:07 51°15.451 2°50.258 10.9 348 10.7 101200 81
2009-06-05 06:58:12 51°15.455 2°50.231 8.9 349 10.7 101210 82
2009-06-05 06:58:17 51°15.459 2°50.205 10.2 348 10.7 101210 82
2009-06-05 06:58:22 51°15.462 2°50.179 9 347 10.7 101210 81
2009-06-05 06:58:27 51°15.467 2°50.153 8.8 347 10.7 101210 81
2009-06-05 06:58:32 51°15.471 2°50.127 9.1 345 10.7 101210 81
2009-06-05 06:58:37 51°15.475 2°50.1 8.4 343 10.7 101210 81
2009-06-05 06:58:42 51°15.478 2°50.074 10.7 342 10.7 101210 82
2009-06-05 06:58:47 51°15.482 2°50.048 7.8 341 10.7 101210 82
2009-06-05 06:58:52 51°15.487 2°50.022 9.1 339 10.6 101210 81
2009-06-05 06:58:57 51°15.491 2°49.996 10.6 341 10.6 101210 81
2009-06-05 06:59:02 51°15.495 2°49.97 8.1 339 10.6 101220 81
2009-06-05 06:59:07 51°15.499 2°49.944 9.8 340 10.6 101220 81
2009-06-05 06:59:12 51°15.504 2°49.918 10.2 341 10.6 101220 81
2009-06-05 06:59:17 51°15.508 2°49.892 10.6 349 10.6 101220 81
2009-06-05 06:59:22 51°15.513 2°49.866 10.5 350 10.6 101220 82
2009-06-05 06:59:27 51°15.516 2°49.839 9.9 351 10.6 101220 82
2009-06-05 06:59:32 51°15.52 2°49.813 8.8 355 10.6 101230 82
2009-06-05 06:59:37 51°15.525 2°49.788 8.9 352 10.6 101230 82
2009-06-05 06:59:42 51°15.529 2°49.761 7.7 350 10.6 101220 84
2009-06-05 06:59:47 51°15.533 2°49.736 9.3 351 10.6 101220 84
2009-06-05 06:59:52 51°15.537 2°49.71 9.5 345 10.6 101210 83
2009-06-05 06:59:57 51°15.542 2°49.684 8.8 350 10.6 101210 83
2009-06-05 07:00:02 51°15.545 2°49.658 10.3 352 10.6 101210 84
2009-06-05 07:00:07 51°15.55 2°49.632 8.4 348 10.6 101210 84
2009-06-05 07:00:12 51°15.553 2°49.606 10.7 349 10.6 101220 84
2009-06-05 07:00:17 51°15.558 2°49.58 10.1 347 10.6 101220 84
2009-06-05 07:00:22 51°15.562 2°49.554 10.1 349 10.6 101220 85
2009-06-05 07:00:27 51°15.566 2°49.528 9.1 349 10.6 101220 85
2009-06-05 07:00:32 51°15.57 2°49.503 10 351 10.6 101210 84
2009-06-05 07:00:37 51°15.575 2°49.477 9.4 350 10.6 101210 84
2009-06-05 07:00:42 51°15.579 2°49.451 10.4 349 10.5 101220 83
2009-06-05 07:00:47 51°15.583 2°49.425 8.7 350 10.5 101220 83
2009-06-05 07:00:52 51°15.587 2°49.399 8.6 352 10.5 101210 83
2009-06-05 07:00:57 51°15.591 2°49.374 10.7 351 10.5 101210 83
2009-06-05 07:01:02 51°15.596 2°49.349 9.5 351 10.5 101210 84
2009-06-05 07:01:07 51°15.599 2°49.323 8.7 349 10.5 101210 84
2009-06-05 07:01:12 51°15.603 2°49.297 8 351 10.5 101210 84
2009-06-05 07:01:17 51°15.608 2°49.272 9.2 351 10.5 101210 84
2009-06-05 07:01:22 51°15.612 2°49.246 9.7 350 10.5 101220 84
2009-06-05 07:01:27 51°15.615 2°49.22 10.4 352 10.5 101220 84
2009-06-05 07:01:32 51°15.619 2°49.195 8.8 351 10.5 101210 85
2009-06-05 07:01:37 51°15.623 2°49.169 9.9 352 10.5 101210 85
2009-06-05 07:01:42 51°15.627 2°49.143 10.2 352 10.5 101220 85
2009-06-05 07:01:47 51°15.631 2°49.118 8.6 351 10.5 101220 85
2009-06-05 07:01:52 51°15.635 2°49.092 8.7 352 10.5 101230 85
2009-06-05 07:01:57 51°15.639 2°49.067 9.5 353 10.5 101230 85
2009-06-05 07:02:02 51°15.643 2°49.041 8.3 353 10.5 101210 84
2009-06-05 07:02:07 51°15.647 2°49.015 9 351 10.5 101210 84
2009-06-05 07:02:12 51°15.652 2°48.99 9.8 351 10.5 101220 85
2009-06-05 07:02:17 51°15.656 2°48.965 9.3 352 10.5 101220 85
2009-06-05 07:02:22 51°15.66 2°48.939 8.8 351 10.5 101220 84
2009-06-05 07:02:27 51°15.664 2°48.914 9.9 348 10.5 101220 84
2009-06-05 07:02:32 51°15.668 2°48.888 9.8 346 10.5 101220 85
2009-06-05 07:02:37 51°15.672 2°48.863 10.7 342 10.5 101220 85
2009-06-05 07:02:42 51°15.674 2°48.837 11 345 10.5 101230 84
2009-06-05 07:02:47 51°15.677 2°48.811 8.8 346 10.5 101230 84
2009-06-05 07:02:52 51°15.679 2°48.785 10.4 346 10.5 101230 85
2009-06-05 07:02:57 51°15.681 2°48.759 9.2 349 10.5 101230 85
2009-06-05 07:03:02 51°15.683 2°48.733 9.8 347 10.4 101220 85
2009-06-05 07:03:07 51°15.684 2°48.706 9.3 349 10.4 101220 85
2009-06-05 07:03:12 51°15.685 2°48.679 9.7 348 10.5 101230 85
2009-06-05 07:03:17 51°15.686 2°48.653 9.3 349 10.5 101230 85
2009-06-05 07:03:22 51°15.686 2°48.626 9.3 351 10.5 101220 86
2009-06-05 07:03:27 51°15.687 2°48.599 8.7 351 10.5 101220 86
2009-06-05 07:03:32 51°15.686 2°48.572 8.8 350 10.5 101220 86
2009-06-05 07:03:37 51°15.687 2°48.545 8.4 351 10.5 101220 86
2009-06-05 07:03:42 51°15.686 2°48.518 9.7 352 10.5 101230 85
2009-06-05 07:03:47 51°15.685 2°48.491 8.5 350 10.5 101230 85
2009-06-05 07:03:52 51°15.685 2°48.464 9.8 349 10.5 101230 84
2009-06-05 07:03:57 51°15.685 2°48.437 7.9 350 10.5 101230 84
2009-06-05 07:04:02 51°15.685 2°48.41 9 350 10.4 101230 85
2009-06-05 07:04:07 51°15.684 2°48.383 9 352 10.4 101230 85
2009-06-05 07:04:12 51°15.684 2°48.356 8 350 10.5 101220 87
2009-06-05 07:04:17 51°15.683 2°48.328 9 350 10.5 101220 87
2009-06-05 07:04:22 51°15.684 2°48.301 8 349 10.5 101230 86
2009-06-05 07:04:27 51°15.683 2°48.274 7.2 347 10.5 101230 86
2009-06-05 07:04:32 51°15.682 2°48.247 8.3 352 10.4 101230 85
2009-06-05 07:04:37 51°15.682 2°48.219 7.7 352 10.4 101230 85
2009-06-05 07:04:42 51°15.681 2°48.192 7.7 353 10.4 101230 85
2009-06-05 07:04:47 51°15.681 2°48.165 9.3 355 10.4 101230 85
2009-06-05 07:04:52 51°15.681 2°48.138 10.1 350 10.4 101230 85
2009-06-05 07:04:57 51°15.683 2°48.11 9.2 348 10.4 101230 85
2009-06-05 07:05:02 51°15.684 2°48.083 8.4 349 10.4 101230 85
2009-06-05 07:05:07 51°15.685 2°48.056 9.3 349 10.4 101230 85
2009-06-05 07:05:12 51°15.687 2°48.029 8.7 348 10.4 101230 86
2009-06-05 07:05:17 51°15.689 2°48.002 10.2 346 10.4 101230 86
2009-06-05 07:05:22 51°15.69 2°47.975 8.6 351 10.4 101230 86
2009-06-05 07:05:27 51°15.693 2°47.948 8.7 348 10.4 101230 86
2009-06-05 07:05:32 51°15.695 2°47.922 7.2 347 10.4 101230 86
2009-06-05 07:05:37 51°15.697 2°47.895 7.6 349 10.4 101230 86
2009-06-05 07:05:42 51°15.701 2°47.869 8.8 343 10.4 101240 85
2009-06-05 07:05:47 51°15.704 2°47.843 9.5 345 10.4 101240 85
2009-06-05 07:05:52 51°15.708 2°47.817 8.9 346 10.4 101220 85
2009-06-05 07:05:57 51°15.712 2°47.791 9.1 346 10.4 101220 85
2009-06-05 07:06:02 51°15.716 2°47.765 8.5 348 10.4 101230 85
2009-06-05 07:06:07 51°15.721 2°47.739 9.9 346 10.4 101230 85
2009-06-05 07:06:12 51°15.725 2°47.713 9 345 10.4 101230 86
2009-06-05 07:06:17 51°15.73 2°47.687 8.5 345 10.4 101230 86
2009-06-05 07:06:22 51°15.735 2°47.661 7.8 344 10.4 101230 85
2009-06-05 07:06:27 51°15.74 2°47.636 10.3 347 10.4 101230 85
2009-06-05 07:06:32 51°15.745 2°47.61 8.3 346 10.4 101230 87
2009-06-05 07:06:37 51°15.749 2°47.585 9.2 345 10.4 101230 87
2009-06-05 07:06:42 51°15.755 2°47.559 10.2 345 10.4 101230 86
2009-06-05 07:06:47 51°15.759 2°47.533 10.2 343 10.4 101230 86
2009-06-05 07:06:52 51°15.764 2°47.507 8.4 345 10.5 101240 86
2009-06-05 07:06:57 51°15.77 2°47.482 8.7 345 10.5 101240 86
2009-06-05 07:07:02 51°15.774 2°47.456 8.2 347 10.5 101240 87
2009-06-05 07:07:07 51°15.779 2°47.43 8.6 346 10.5 101240 87
2009-06-05 07:07:12 51°15.784 2°47.404 9.4 346 10.5 101240 86
2009-06-05 07:07:17 51°15.789 2°47.378 9.5 346 10.5 101240 86
2009-06-05 07:07:22 51°15.793 2°47.352 9.8 344 10.5 101240 85
2009-06-05 07:07:27 51°15.799 2°47.327 11.2 344 10.5 101240 85
2009-06-05 07:07:32 51°15.804 2°47.301 10.8 344 10.4 101230 85
2009-06-05 07:07:37 51°15.809 2°47.275 10.6 281 10.4 101230 85
2009-06-05 07:07:42 51°15.813 2°47.249 10.4 345 10.5 101230 86
2009-06-05 07:07:47 51°15.818 2°47.223 13 345 10.5 101230 86
2009-06-05 07:07:51 51°15.824 2°47.203 12 343 10.5 101240 86
2009-06-05 07:07:57 51°15.829 2°47.172 10.8 347 10.5 101240 86
2009-06-05 07:08:02 51°15.834 2°47.147 10.7 347 10.5 101220 86
2009-06-05 07:08:07 51°15.839 2°47.121 9.9 346 10.5 101220 86
2009-06-05 07:08:12 51°15.844 2°47.096 9.6 347 10.5 101220 86
2009-06-05 07:08:17 51°15.849 2°47.07 9.3 346 10.5 101220 86
2009-06-05 07:08:22 51°15.855 2°47.045 7.8 348 10.5 101230 85
2009-06-05 07:08:27 51°15.86 2°47.019 9.1 349 10.5 101230 85
2009-06-05 07:08:32 51°15.864 2°46.994 8.6 350 10.5 101230 85
2009-06-05 07:08:37 51°15.87 2°46.969 9.8 347 10.5 101230 85
2009-06-05 07:08:42 51°15.874 2°46.943 8.4 352 10.4 101230 84
2009-06-05 07:08:47 51°15.88 2°46.918 9.5 346 10.4 101230 84
2009-06-05 07:08:52 51°15.884 2°46.892 10.1 350 10.4 101230 84
2009-06-05 07:08:57 51°15.89 2°46.867 7.6 347 10.4 101230 84
2009-06-05 07:09:02 51°15.894 2°46.841 9.3 350 10.4 101230 85
2009-06-05 07:09:07 51°15.9 2°46.816 8.9 346 10.4 101230 85
2009-06-05 07:09:12 51°15.904 2°46.79 8 348 10.5 101230 84
2009-06-05 07:09:17 51°15.91 2°46.766 9 347 10.5 101230 84
2009-06-05 07:09:22 51°15.914 2°46.74 8.9 348 10.4 101230 84
2009-06-05 07:09:27 51°15.92 2°46.715 10.7 346 10.4 101230 84
2009-06-05 07:09:32 51°15.924 2°46.689 9.5 347 10.4 101230 85
2009-06-05 07:09:37 51°15.93 2°46.664 9 285 10.4 101230 85
2009-06-05 07:09:42 51°15.934 2°46.638 10.8 343 10.5 101240 86
2009-06-05 07:09:47 51°15.94 2°46.614 8.8 342 10.5 101240 86
2009-06-05 07:09:51 51°15.944 2°46.593 10.6 343 10.5 101240 86
2009-06-05 07:09:57 51°15.95 2°46.563 11.3 343 10.5 101240 86
2009-06-05 07:10:02 51°15.955 2°46.538 11.1 344 10.5 101240 86
2009-06-05 07:10:07 51°15.96 2°46.513 8.5 345 10.5 101240 86
2009-06-05 07:10:12 51°15.965 2°46.488 8.7 346 10.6 101240 86
2009-06-05 07:10:17 51°15.97 2°46.462 8.8 343 10.6 101240 86
2009-06-05 07:10:22 51°15.975 2°46.437 9.1 347 10.5 101240 85
2009-06-05 07:10:27 51°15.98 2°46.412 9 343 10.5 101240 85
2009-06-05 07:10:32 51°15.985 2°46.387 9.5 345 10.5 101240 85
2009-06-05 07:10:37 51°15.99 2°46.362 10.9 348 10.5 101240 85
2009-06-05 07:10:42 51°15.995 2°46.337 10 343 10.5 101230 85
2009-06-05 07:10:47 51°16 2°46.312 10.1 344 10.5 101230 85
2009-06-05 07:10:52 51°16.006 2°46.287 10.3 345 10.5 101230 85
2009-06-05 07:10:57 51°16.011 2°46.262 10.8 345 10.5 101230 85
2009-06-05 07:11:02 51°16.017 2°46.239 8.5 346 10.5 101240 85
2009-06-05 07:11:07 51°16.022 2°46.214 10.7 344 10.5 101240 85
2009-06-05 07:11:12 51°16.028 2°46.189 10.4 344 10.5 101230 84
2009-06-05 07:11:17 51°16.034 2°46.165 8.2 343 10.5 101230 84
2009-06-05 07:11:22 51°16.04 2°46.141 10.8 343 10.6 101230 86
2009-06-05 07:11:27 51°16.046 2°46.116 8.9 345 10.6 101230 86
2009-06-05 07:11:32 51°16.052 2°46.093 8.9 344 10.5 101230 85
2009-06-05 07:11:37 51°16.058 2°46.068 11 282 10.5 101230 85
2009-06-05 07:11:42 51°16.064 2°46.044 10.7 347 10.5 101230 84
2009-06-05 07:11:47 51°16.069 2°46.02 9.2 346 10.5 101230 84
2009-06-05 07:11:51 51°16.074 2°46.001 11.3 341 10.5 101230 85
2009-06-05 07:11:57 51°16.081 2°45.972 9.1 343 10.5 101230 85
2009-06-05 07:12:02 51°16.088 2°45.949 10.6 343 10.5 101240 84
2009-06-05 07:12:07 51°16.094 2°45.925 10.1 343 10.5 101240 84
2009-06-05 07:12:12 51°16.1 2°45.901 8.7 343 10.5 101230 84
2009-06-05 07:12:17 51°16.106 2°45.877 7.5 344 10.5 101230 84
2009-06-05 07:12:22 51°16.113 2°45.853 7.3 343 10.5 101230 84
2009-06-05 07:12:27 51°16.12 2°45.831 9.6 345 10.5 101230 84
2009-06-05 07:12:32 51°16.126 2°45.807 8.1 346 10.5 101230 83
2009-06-05 07:12:37 51°16.134 2°45.785 7 344 10.5 101230 83
2009-06-05 07:12:42 51°16.14 2°45.761 8.4 347 10.5 101230 84
2009-06-05 07:12:47 51°16.148 2°45.739 8.5 348 10.5 101230 84
2009-06-05 07:12:52 51°16.155 2°45.716 9.9 346 10.5 101240 85
2009-06-05 07:12:57 51°16.163 2°45.694 10.9 341 10.5 101240 85
2009-06-05 07:13:02 51°16.17 2°45.671 11.5 344 10.5 101230 84
2009-06-05 07:13:07 51°16.177 2°45.649 11.5 341 10.5 101230 84
2009-06-05 07:13:12 51°16.185 2°45.626 11.4 340 10.5 101230 84
2009-06-05 07:13:17 51°16.192 2°45.604 10.6 340 10.5 101230 84
2009-06-05 07:13:22 51°16.199 2°45.581 10.4 342 10.6 101230 86
2009-06-05 07:13:27 51°16.207 2°45.558 10.8 339 10.6 101230 86
2009-06-05 07:13:32 51°16.214 2°45.536 8.6 340 10.6 101230 85
2009-06-05 07:13:37 51°16.221 2°45.513 10.2 280 10.6 101230 85
2009-06-05 07:13:42 51°16.229 2°45.491 8 340 10.5 101230 84
2009-06-05 07:13:47 51°16.236 2°45.468 10.2 342 10.5 101230 84
2009-06-05 07:13:52 51°16.243 2°45.446 8.9 339 10.5 101230 83
2009-06-05 07:13:57 51°16.25 2°45.423 9.6 341 10.5 101230 83
2009-06-05 07:14:02 51°16.257 2°45.401 9.6 343 10.5 101230 83
2009-06-05 07:14:07 51°16.264 2°45.378 10.1 343 10.5 101230 83
2009-06-05 07:14:12 51°16.272 2°45.356 10.9 338 10.5 101240 83
2009-06-05 07:14:17 51°16.279 2°45.333 9.4 341 10.5 101240 83
2009-06-05 07:14:22 51°16.286 2°45.31 10.8 341 10.5 101230 83
2009-06-05 07:14:27 51°16.293 2°45.287 9.3 339 10.5 101230 83
2009-06-05 07:14:32 51°16.3 2°45.265 10.9 340 10.5 101230 84
2009-06-05 07:14:37 51°16.308 2°45.241 8.9 341 10.5 101230 84
2009-06-05 07:14:42 51°16.314 2°45.219 8.9 338 10.5 101230 84
2009-06-05 07:14:47 51°16.321 2°45.196 8.5 339 10.5 101230 84
2009-06-05 07:14:52 51°16.329 2°45.174 8.5 341 10.5 101240 83
2009-06-05 07:14:57 51°16.336 2°45.151 8.4 341 10.5 101240 83
2009-06-05 07:15:02 51°16.343 2°45.128 10.7 342 10.5 101220 82
2009-06-05 07:15:07 51°16.349 2°45.105 8.3 342 10.5 101220 82